RH
15 17 20 29 95 78 65 58 59 44 24 19 19 13 13 18 32 30 48 28 54 65 58 81 96 42 36 43 52 44 42 40 37 33 26 24 21 23 22 21 18 18 17
18 26 42 87 88 69 65 50 38 26 24 26 18 14 16 49 74 67 87 74 94 100 100 100 100 79 92 73 59 56 49 49 43 39 32 31 24 23 22 20 19 19 20
18 35 66 62 69 85 65 43 35 34 36 25 16 14 18 53 76 87 89 91 87 75 67 58 65 75 82 85 71 67 62 51 47 46 41 33 31 30 24 26 22 22 23
18 32 66 83 80 77 54 42 37 35 33 24 18 17 22 66 78 100 100 98 98 96 69 71 96 99 95 96 93 74 56 50 47 48 43 40 47 35 37 28 24 23 27
25 57 70 80 82 65 47 42 46 42 40 27 20 18 24 46 93 100 97 95 99 89 78 70 67 73 54 64 70 55 56 58 56 56 52 65 80 68 61 42 30 29 31
27 46 79 76 54 55 56 54 56 45 44 37 21 18 20 28 54 57 72 77 80 76 80 75 67 67 68 69 67 71 54 34 29 52 69 80 83 72 40 39 32 34 36
34 38 45 44 40 54 62 91 76 62 51 31 22 27 25 25 28 31 34 37 38 28 24 23 21 19 19 17 16 17 22 30 34 44 83 100 87 50 39 35 30 32 41
28 32 40 38 29 35 71 100 96 74 48 29 27 26 27 28 31 28 30 29 28 23 19 17 14 17 17 16 18 20 20 22 25 33 37 45 47 43 42 44 38 31 35
32 25 26 28 25 34 82 100 76 46 34 31 38 35 38 34 37 35 28 24 24 21 16 13 14 17 19 16 17 16 15 16 20 26 29 31 40 48 52 53 46 38 32
60 28 26 29 23 22 28 51 49 38 39 32 32 36 45 31 22 20 18 23 29 23 17 22 21 16 24 21 19 28 31 23 19 21 24 25 29 31 36 63 84 68 57
80 38 23 26 25 21 25 32 29 28 30 26 24 23 20 20 21 20 22 24 26 28 24 21 19 23 31 39 45 40 39 31 30 28 27 33 34 32 33 33 36 61 88
97 50 30 24 27 26 23 43 43 47 41 32 26 20 20 26 28 25 27 34 28 31 28 27 26 31 38 39 49 80 92 77 57 50 38 31 34 43 39 31 30 32 37
72 83 32 37 39 38 38 32 38 50 50 53 73 52 37 37 32 30 31 38 35 38 40 42 44 48 43 48 54 64 98 100 100 99 91 76 59 53 74 61 50 53 50
50 56 100 63 54 51 63 63 51 42 60 63 99 88 76 48 34 36 34 38 60 45 43 46 64 57 49 50 52 54 58 65 64 63 98 98 82 68 70 66 87 62 57
73 36 49 100 88 70 74 79 58 41 42 77 62 85 87 64 59 55 51 62 77 56 52 56 60 49 57 54 49 52 56 60 58 56 56 69 84 72 46 48 57 75 49
83 47 36 87 100 100 97 93 94 69 55 70 78 94 100 88 79 75 92 81 74 72 58 64 71 84 85 88 76 57 48 56 70 70 66 73 83 86 62 70 70 42 41
87 49 36 81 100 100 100 100 100 88 72 60 96 100 96 81 86 54 79 94 95 94 92 80 100 74 56 57 65 74 78 82 74 68 63 53 63 68 66 75 90 87 73
68 40 45 48 80 100 100 100 100 100 75 100 100 100 100 76 62 80 83 91 100 89 73 83 62 55 59 78 84 72 62 73 90 66 85 66 97 89 72 94 76 76 88
24 19 31 58 79 85 100 100 100 100 100 81 100 100 77 87 55 40 71 81 87 81 84 57 52 59 72 66 76 82 91 83 74 50 83 98 100 100 98 74 76 100 82
24 21 24 45 79 67 77 90 100 95 62 89 100 90 63 37 30 35 57 48 46 44 45 47 48 44 57 68 73 49 56 61 67 62 70 70 64 100 100 79 74 98 91
28 25 28 19 31 46 68 75 69 65 56 53 54 80 44 39 34 45 33 34 39 44 38 40 40 44 58 64 60 49 48 75 100 100 100 100 100 85 100 100 100 100 100
28 28 37 23 30 48 66 54 59 72 63 48 30 30 45 52 48 52 37 41 41 39 42 42 50 62 54 49 51 52 87 98 100 100 100 100 100 100 100 100 100 96 100
31 24 24 23 23 48 67 79 70 61 38 32 29 64 87 84 59 52 39 38 43 57 54 45 34 45 56 65 57 86 97 89 97 100 100 100 100 99 87 99 100 100 100
39 31 25 24 30 42 56 69 76 56 42 38 71 97 47 40 33 35 35 38 70 71 56 55 58 76 71 68 70 96 68 96 99 74 100 100 97 100 90 92 100 100 100
48 35 26 22 21 28 34 53 50 39 33 38 84 36 26 30 35 34 38 50 89 82 61 65 63 73 69 75 76 71 79 100 100 100 100 100 100 98 99 100 100 100 100
55 36 24 21 17 17 20 22 28 48 73 96 52 36 31 38 31 36 51 80 85 82 70 65 79 62 67 83 66 70 97 100 100 100 95 97 90 84 71 60 86 91 72
Wind_Speed
25 22 18 15 12 16 15 14 12 15 18 19 20 20 20 16 12 9 10 12 13 15 18 20 21 20 20 20 19 19 19 20 21 20 22 26 29 32 32 33 35 37 37
23 20 13 11 14 15 14 13 14 16 16 19 19 19 17 9 7 7 7 10 10 10 9 15 15 15 16 17 19 22 23 24 25 26 27 30 31 30 32 33 32 35 35
23 17 15 15 16 16 13 14 16 16 19 19 17 15 16 9 6 8 7 9 11 14 10 12 18 18 20 23 23 24 25 26 29 31 33 34 35 34 31 30 30 32 33
25 17 14 16 16 13 11 13 16 17 18 19 16 14 12 7 7 8 8 9 11 15 17 18 19 21 20 20 24 28 30 31 33 35 35 34 34 32 30 30 29 31 31
21 18 14 14 12 9 14 14 13 16 15 15 13 13 12 9 7 6 10 12 13 17 19 21 23 25 25 26 31 34 34 33 35 36 36 31 31 32 34 33 28 28 28
19 18 17 13 14 15 13 12 14 17 16 16 13 10 11 11 9 12 13 12 14 14 13 16 19 21 22 25 26 32 36 34 32 29 32 29 30 34 33 28 27 27 28
18 18 17 16 17 17 17 15 17 17 17 14 7 6 7 9 10 14 15 13 14 14 14 16 18 19 19 24 24 25 29 30 28 25 26 30 34 33 28 27 25 25 26
21 19 18 19 19 19 16 13 15 16 17 13 9 7 6 7 7 8 9 9 8 8 10 12 15 17 22 22 20 20 21 23 27 31 31 30 31 31 29 27 27 25 25
21 22 20 18 19 17 14 12 15 16 15 12 12 8 7 9 9 10 9 10 10 7 12 16 12 24 26 22 21 24 24 24 23 24 26 30 33 34 31 28 26 26 26
20 20 18 20 16 14 13 10 14 15 15 13 9 10 11 11 11 10 9 12 16 15 13 21 22 25 31 29 24 21 21 22 27 27 25 27 28 28 30 30 28 27 27
22 20 17 17 10 10 10 9 11 13 14 12 9 10 11 13 15 13 14 16 19 17 20 20 23 28 31 32 31 30 30 24 20 22 25 27 26 29 29 29 29 30 31
24 19 18 15 16 12 12 13 13 13 14 14 12 10 13 12 16 15 16 18 19 19 21 24 25 28 30 29 27 26 30 32 33 32 30 27 28 27 28 30 32 33 34
24 21 19 21 21 20 20 19 18 17 17 20 21 16 18 16 14 14 17 19 20 24 26 27 27 27 31 31 28 28 29 29 32 34 34 33 34 33 34 34 35 34 32
23 24 24 25 25 25 22 21 22 24 22 21 22 20 22 19 15 17 19 20 22 24 28 28 30 30 35 35 32 32 33 37 37 36 34 35 39 40 37 36 39 38 40
26 24 24 28 29 29 28 24 22 24 22 22 21 21 20 17 18 21 24 25 26 27 29 30 32 33 37 38 38 37 36 37 38 41 45 44 45 45 45 46 47 47 46
29 29 26 29 32 31 31 27 25 27 24 23 26 26 18 17 20 23 29 29 28 28 30 35 40 42 40 38 39 42 41 45 42 44 44 47 51 54 54 53 54 54 54
31 31 28 29 31 31 31 30 29 28 28 27 31 29 18 20 23 24 29 29 30 28 29 35 38 37 39 40 42 46 47 47 45 51 44 47 53 55 56 58 60 61 64
29 30 31 31 33 29 29 26 31 28 26 28 28 23 19 23 26 26 27 30 33 40 40 39 38 38 38 43 47 48 48 52 52 47 50 52 54 54 64 66 62 65 65
23 23 27 30 32 31 29 28 28 29 29 25 24 18 22 24 28 28 28 33 38 39 37 38 42 43 44 45 48 52 55 59 58 57 61 62 71 67 65 64 67 65 67
25 24 24 28 32 36 35 30 28 27 26 25 22 26 29 30 32 34 35 40 40 37 43 46 42 45 46 49 53 53 54 56 65 66 67 69 74 74 82 76 67 69 69
27 28 27 27 31 36 39 40 38 38 30 33 28 30 33 33 37 38 34 40 39 41 42 43 48 52 57 62 62 61 65 63 68 72 76 78 88 90 92 87 76 73 77
29 27 29 31 32 35 38 41 39 33 33 30 31 33 36 36 38 36 38 42 45 48 50 53 56 59 63 65 71 73 72 72 73 80 84 93 93 100 97 91 83 81 77
31 26 28 33 35 35 37 37 35 33 34 33 34 37 38 40 38 39 43 44 51 58 61 61 62 61 69 72 80 80 80 82 82 88 91 99 102 104 97 91 88 89 90
32 30 29 31 35 33 34 33 33 34 35 36 39 40 38 37 38 44 51 53 59 66 66 68 71 72 76 83 86 89 92 91 95 94 100 106 107 108 102 98 95 98 104
30 32 30 31 34 34 35 37 38 39 38 42 37 35 35 42 44 51 57 60 65 71 73 75 73 77 81 89 89 94 101 102 110 112 111 116 117 113 103 101 104 108 113
31 32 31 32 30 32 34 36 35 35 39 39 42 45 45 46 52 57 62 66 72 75 80 82 82 88 88 98 98 103 106 111 114 120 127 122 122 112 110 107 110 114 115
Wind_Direction
325 317 306 297 289 298 299 294 284 282 283 289 301 303 304 308 312 305 285 253 243 251 261 262 256 255 260 266 266 260 261 264 265 272 285 292 291 283 281 278 276 274 273
330 321 305 290 294 294 292 289 288 284 298 312 315 308 321 319 332 348 274 255 233 239 265 255 255 285 262 262 257 262 262 267 268 276 288 296 294 295 286 279 274 273 272
334 316 297 297 293 287 288 296 296 296 308 319 319 316 325 316 320 315 300 259 261 266 278 286 267 281 276 256 256 268 271 277 283 289 294 293 291 292 286 283 276 270 268
331 315 305 300 295 288 281 287 284 298 315 324 315 316 320 296 311 291 282 278 273 271 269 274 279 281 277 269 268 279 285 283 285 287 291 290 289 289 291 289 280 270 268
335 319 305 302 308 294 296 285 293 307 317 325 322 314 310 298 275 271 265 268 273 276 275 275 270 269 272 270 271 278 281 283 286 289 288 286 288 290 295 294 284 270 265
331 318 309 311 314 309 296 286 290 305 317 321 314 321 310 299 290 274 278 277 279 285 291 294 295 292 287 285 283 280 282 285 284 285 281 279 282 288 292 292 292 278 267
327 325 317 316 317 308 307 283 295 306 311 305 305 322 291 267 264 271 272 274 280 298 306 310 311 307 306 303 294 289 284 283 284 287 287 284 284 290 294 289 292 289 278
323 316 310 312 312 312 308 291 298 311 310 283 289 309 320 302 279 283 292 297 302 301 323 333 326 321 310 309 301 297 296 293 288 283 279 276 280 284 290 292 295 293 289
320 315 312 311 318 317 306 298 303 310 306 294 286 280 303 300 311 308 300 314 307 306 347 353 353 350 351 349 323 305 290 293 292 290 290 289 286 283 283 286 288 294 290
319 313 311 308 311 313 304 299 301 310 303 306 313 308 323 337 328 315 334 346 332 326 325 341 339 343 345 342 337 333 338 321 302 292 290 286 284 288 290 290 292 293 292
314 309 308 305 304 315 310 306 313 323 321 316 323 323 337 337 345 339 341 345 348 335 331 333 336 344 345 336 334 336 340 337 332 332 311 301 305 295 292 290 289 284 282
307 303 293 280 289 287 293 297 298 304 309 308 312 319 326 334 336 334 329 326 329 329 329 335 337 340 341 337 332 329 331 330 328 324 320 315 312 310 306 306 297 287 280
313 297 287 288 286 288 286 285 291 288 290 298 296 295 307 308 319 317 321 316 320 327 325 329 332 335 338 337 327 325 327 327 322 320 314 314 310 306 310 306 302 303 296
312 311 292 283 284 283 285 284 277 283 289 296 306 303 306 300 303 316 315 308 310 314 314 323 328 327 329 326 324 320 316 315 315 315 311 308 303 299 294 298 294 299 300
300 310 305 285 281 280 280 278 283 286 288 297 308 300 298 296 288 296 303 301 303 306 303 309 316 317 322 322 318 319 315 309 306 305 303 300 299 297 294 291 291 286 289
300 307 303 284 280 278 283 284 283 284 285 293 306 306 296 304 296 295 293 295 302 300 294 299 310 319 317 317 314 318 322 320 310 307 303 301 298 298 295 292 291 289 284
298 304 300 282 281 285 287 284 280 279 290 289 301 298 303 310 305 305 294 287 297 304 308 309 312 316 317 317 313 316 316 314 315 310 310 313 306 298 298 295 288 287 287
298 299 295 288 277 282 284 285 282 281 285 290 287 295 298 307 307 304 293 299 299 308 309 311 315 314 311 313 309 312 311 311 315 303 310 310 310 304 305 301 295 284 279
304 310 300 289 282 277 277 281 279 277 283 278 293 274 301 300 303 308 308 302 302 304 304 311 311 307 307 312 316 315 307 305 313 309 309 307 313 304 306 298 291 288 281
305 309 306 298 282 281 278 273 274 274 276 277 274 273 304 311 311 310 311 313 312 312 311 312 310 311 308 304 312 315 312 309 319 313 313 311 309 306 308 302 291 284 279
300 298 297 301 294 286 281 275 275 278 270 275 283 283 296 303 303 301 311 316 313 313 317 317 310 308 310 312 314 312 310 308 309 311 313 308 308 306 304 300 287 282 281
292 295 296 309 302 290 282 283 281 276 277 278 281 289 294 296 297 299 305 310 315 316 313 307 307 304 308 312 313 316 310 310 307 309 309 309 306 308 300 296 288 282 277
289 295 299 307 308 296 287 285 281 281 283 283 291 292 294 295 299 298 302 305 307 310 306 313 316 310 315 313 316 314 313 311 310 308 307 311 306 306 298 289 285 281 278
285 294 301 307 305 292 280 279 281 288 290 295 295 297 298 297 303 299 298 297 302 308 309 306 303 306 310 314 316 316 315 310 308 305 310 307 305 303 296 286 280 276 274
287 295 301 309 308 291 281 281 279 282 289 291 292 297 302 308 298 297 296 297 301 304 307 309 308 310 311 314 313 313 314 310 310 310 310 308 306 299 291 281 278 275 273
284 295 296 306 312 304 294 288 289 293 296 294 303 301 296 292 296 295 297 299 305 306 312 312 309 308 308 311 313 314 313 312 311 310 309 306 306 295 291 282 274 270 267